Regional Weather Roundup
Issued by NWS

Home | Current Version | Previous Version | Graphics & Text | Print | Product List | Glossary Off
Versions: 1 2 3 4 5 6 7 8 9 10 11 12 13 14 15 16 17 18 19 20 21 22 23 24 25 26 27 28 29 30 31 32 33 34 35 36 37 38 39 40 41 42 43 44 45 46 47 48 49 50

000
ASUS43 KTOP 011759
RWRKS

WEATHER ROUNDUP FOR KANSAS
NATIONAL WEATHER SERVICE GOODLAND KS
100 PM CDT TUE SEP 01 2015

NOTE:  "FAIR" INDICATES FEW OR NO CLOUDS BELOW 12,000 FEET WITH NO
SIGNIFICANT WEATHER AND/OR OBSTRUCTIONS TO VISIBILITY.

KSZ001>006-013>018-027>032-041>047-011900-
NORTHWEST KANSAS

CITY           SKY/WX    TMP DP  RH WIND       PRES   REMARKS
GOODLAND       SUNNY     83  56  39 SW5       30.01F
6HR MIN TEMP:  60; 6HR MAX TEMP:  84;

HAYS           MOSUNNY   91  61  35 S20G25    29.92F
HILL CITY      SUNNY     89  60  37 VRB6      29.94F
6HR MIN TEMP:  70; 6HR MAX TEMP:  89; 6HR PCP: TRACE;

RUSSELL        SUNNY     92  59  33 S22G31    29.92F
6HR MIN TEMP:  75; 6HR MAX TEMP:  93;

$$

KSZ061>065-074>080-084>089-011900-
SOUTHWEST KANSAS

CITY           SKY/WX    TMP DP  RH WIND       PRES   REMARKS
DODGE CITY     SUNNY     87  56  34 S15       30.00S
6HR MIN TEMP:  67; 6HR MAX TEMP:  87;

ELKHART          N/A     88  59  37 S8          N/A
GARDEN CITY    PTSUNNY   84  58  40 VRB6      29.99F
6HR MIN TEMP:  62; 6HR MAX TEMP:  84;

GREAT BEND     SUNNY     93  61  33 S21       29.94F
LIBERAL        MOSUNNY   88  57  35 S12       30.01F
$$

KSZ066>073-081>083-090>101-011900-
SOUTHEAST KANSAS

CITY           SKY/WX    TMP DP  RH WIND       PRES   REMARKS
CHANUTE        SUNNY     86  69  56 S14       30.05F
6HR MIN TEMP:  68; 6HR MAX TEMP:  86;

COFFEYVILLE    SUNNY     86  68  54 S15       30.04F
6HR MIN TEMP:  68; 6HR MAX TEMP:  86;

HUTCHINSON     MOSUNNY   90  65  43 S18       29.98F
6HR MIN TEMP:  68; 6HR MAX TEMP:  90;

NEWTON         SUNNY     90  64  43 S17       30.03F
PARSONS        SUNNY     85  69  58 S12       30.06F
6HR MIN TEMP:  69; 6HR MAX TEMP:  85;

WICHITA INTL   MOSUNNY   90  65  43 S17       29.99F
6HR MIN TEMP:  69; 6HR MAX TEMP:  90;

WICHITA JABRA  SUNNY     87  68  52 S13       30.00F
6HR MIN TEMP:  72; 6HR MAX TEMP:  87;

WINFIELD       SUNNY     91  66  43 S14       30.02F
6HR MIN TEMP:  69; 6HR MAX TEMP:  91;

$$

KSZ007>012-019>026-033>040-048>060-102>105-011900-
NORTHEAST KANSAS

CITY           SKY/WX    TMP DP  RH WIND       PRES   REMARKS
CONCORDIA      MOSUNNY   90  65  43 S20       29.94F
6HR MIN TEMP:  71; 6HR MAX TEMP:  90;

EMPORIA        SUNNY     87  66  49 S16       30.01F
6HR MIN TEMP:  69; 6HR MAX TEMP:  87;

LAWRENCE       SUNNY     89  70  53 S10       30.01F
6HR MIN TEMP:  70; 6HR MAX TEMP:  89;

MANHATTAN      SUNNY     91  67  44 S15G21    29.96F
6HR MIN TEMP:  69; 6HR MAX TEMP:  92;

OLATHE IND     SUNNY     85  69  58 S14       30.04F
6HR MIN TEMP:  70; 6HR MAX TEMP:  86;

OLATHE EXE     SUNNY     84  69  60 S13       30.03F
6HR MIN TEMP:  70; 6HR MAX TEMP:  84;

SALINA         MOSUNNY   92  64  39 S18G25    29.95F
6HR MIN TEMP:  69; 6HR MAX TEMP:  92;

TOPEKA BILLARD SUNNY     88  67  49 S13       29.99F
6HR MIN TEMP:  71; 6HR MAX TEMP:  88;

TOPEKA FORBES  SUNNY     89  68  49 S14       30.00F
6HR MIN TEMP:  72; 6HR MAX TEMP:  89;

$$


USA.gov is the U.S. government's official web portal to all federal, state and local government web resources and services.